AKDT,Max TemperatureF,Mean TemperatureF,Min TemperatureF,Max Dew PointF,MeanDew PointF,Min DewpointF,Max Humidity, Mean Humidity, Min Humidity, Max Sea Level PressureIn, Mean Sea Level PressureIn, Min Sea Level PressureIn, Max VisibilityMiles, Mean VisibilityMiles, Min VisibilityMiles, Max Wind SpeedMPH, Mean Wind SpeedMPH, Max Gust SpeedMPH,PrecipitationIn, CloudCover, Events, WindDirDegrees
2013-5-1,3,-8,-20,1,-10,-24,92,86,77,30.44,30.24,30.14,10,6,1,21,11,,0.00,7,Snow,228
2013-5-2,10,5,0,9,2,-3,96,88,79,30.25,30.20,30.16,10,7,1,17,7,,0.00,8,Snow,256
2013-5-3,12,8,3,7,5,1,92,86,73,30.30,30.28,30.25,10,7,2,10,7,,0.00,8,Snow,254
2013-5-4,9,2,-8,4,2,-10,92,85,73,30.28,30.22,30.18,10,8,2,10,3,,0.00,7,Snow,62
2013-5-5,3,-6,-14,-1,-10,-16,100,91,79,30.21,30.19,30.12,10,5,0,10,5,,0.00,3,Fog,92
2013-5-6,27,8,-9,25,13,-10,100,92,86,30.13,30.11,30.10,10,9,2,13,8,,0.00,6,Snow,193
2013-5-7,25,13,1,21,15,0,96,90,84,30.15,30.14,30.13,10,9,2,15,12,,0.00,5,Snow,213
2013-5-8,26,22,19,25,21,16,100,93,82,30.35,30.24,30.15,10,7,1,14,9,,0.16,8,Snow,253
2013-5-9,30,24,19,28,25,19,100,93,88,30.35,30.29,30.22,10,10,10,13,8,,0.32,4,,195
2013-5-10,30,20,10,28,20,10,100,93,86,30.22,30.14,30.04,10,9,2,14,8,,0.24,1,,199
2013-5-11,33,22,10,31,24,9,100,96,87,30.04,29.93,29.78,10,6,0,17,8,,0.03,5,Fog-Rain-Snow,212
2013-5-12,28,26,24,29,27,24,100,98,92,29.77,29.56,29.46,10,2,0,14,6,,0.22,8,Fog-Snow,122
2013-5-13,21,15,6,25,13,5,100,91,77,29.54,29.46,29.42,10,4,0,31,14,39,0.00,7,Fog-Snow,245
2013-5-14,12,9,3,9,5,1,92,86,79,29.72,29.68,29.54,10,5,0,31,21,38,0.00,7,Fog-Snow,249
2013-5-15,23,11,1,19,9,-2,89,84,78,29.68,29.65,29.60,10,10,10,14,7,,0.02,1,,144
2013-5-16,37,22,7,30,18,3,88,82,76,29.58,29.47,29.40,10,10,10,17,7,17,0.01,2,,118
2013-5-17,23,18,12,19,12,8,96,86,74,29.86,29.66,29.49,10,4,0,21,13,,0.00,8,Fog-Snow,275
2013-5-18,16,9,0,11,8,-3,92,89,80,30.20,29.97,29.87,10,5,1,13,8,,0.00,5,Snow,244
2013-5-19,30,12,-6,27,11,-9,88,81,73,30.35,30.29,30.22,10,10,9,17,13,,0.11,3,,172
2013-5-20,34,32,30,31,30,26,92,88,79,30.47,30.43,30.37,10,10,10,22,12,,0.03,8,,184
2013-5-21,37,32,28,33,30,26,96,89,79,30.39,30.27,30.21,10,10,10,12,6,,0.00,4,,171
2013-5-22,35,32,30,32,31,28,96,91,85,30.24,30.21,30.17,10,10,10,13,7,,0.00,6,,57
2013-5-23,28,26,24,29,27,24,100,99,92,30.16,30.13,30.12,10,4,0,20,13,,0.00,7,Fog-Rain,82
2013-5-24,36,31,26,34,32,27,100,95,86,30.24,30.19,30.14,10,10,9,7,4,,0.00,8,,280
2013-5-25,30,28,27,31,29,27,100,100,96,30.21,30.08,30.01,10,4,0,12,7,,0.00,6,Fog,70
2013-5-26,43,34,26,35,32,25,100,93,74,30.04,29.96,29.88,10,9,0,16,8,,0.00,3,Fog,297
2013-5-27,33,32,30,34,31,29,100,99,89,30.15,30.12,30.07,10,5,0,12,9,,0.00,8,Fog,357
2013-5-28,33,31,30,31,30,28,100,96,92,30.12,30.06,29.99,10,9,5,16,12,,0.00,8,,73
2013-5-29,37,33,30,34,31,28,100,94,75,30.11,30.02,29.99,10,7,1,10,6,,0.02,8,Rain-Snow,290
2013-5-30,35,31,28,30,28,25,100,87,78,30.23,30.18,30.11,10,7,1,8,5,,0.00,7,Rain-Snow,8
2013-5-31,37,34,30,32,29,27,100,88,75,30.30,30.27,30.23,10,9,1,13,5,,0.00,7,Rain-Snow,264